Wind_Speed
39 40 42 42 42 42 42 42 42 42 42 43 43 42 41 40 38 36 35 33 32 31 31 30 29 28 27 27 29 33 37 39 41 42 43 45 47 47 46 44 43 42 41 40 39 37 36 35 35 34 34 33 32 31 31 31 31 30 29 29 28 25 22 19 17 13 10 11 11 11 10 8 10 8 11 16 18 21 22 24 26 27 28 29 29 31 33 36
39 40 41 42 43 43 43 44 44 43 43 44 44 44 43 42 41 40 38 36 35 34 34 33 32 31 30 29 29 32 35 38 41 41 41 44 46 47 47 47 46 45 44 42 41 40 38 38 37 37 36 35 35 34 33 32 32 31 30 30 29 27 24 21 19 17 15 12 10 13 12 10 9 8 13 17 17 21 23 24 26 27 27 28 28 30 33 34
40 40 41 42 43 44 45 45 46 45 45 45 45 45 45 45 44 43 41 40 38 37 36 36 35 35 34 32 31 32 34 37 40 40 40 43 45 46 48 49 49 48 47 45 44 43 41 40 40 38 38 37 36 36 35 34 33 32 32 31 30 28 26 23 21 20 19 16 11 11 11 12 12 12 17 19 17 21 22 23 26 27 27 28 28 29 32 32
41 42 42 43 44 45 46 46 47 47 47 47 46 46 46 46 46 45 44 43 42 40 40 39 38 38 37 36 34 34 34 37 40 39 40 42 44 45 47 48 50 50 49 48 47 45 44 42 41 40 39 38 38 37 37 36 34 34 33 32 31 30 29 26 24 21 20 18 14 14 13 13 15 17 19 18 17 21 21 23 26 27 27 27 27 28 31 30
43 44 44 44 45 45 46 47 48 48 49 49 48 48 48 47 47 47 46 46 45 43 43 42 41 41 40 39 38 37 36 39 39 37 40 42 42 44 45 47 49 50 51 50 49 47 46 45 44 42 41 40 39 39 38 37 36 35 34 33 32 32 31 29 27 24 22 20 18 18 15 14 15 17 17 16 18 23 22 23 25 27 27 26 26 28 31 28
47 47 46 46 46 47 47 48 49 49 50 50 50 50 50 49 49 48 48 48 47 46 46 45 44 44 43 42 41 41 40 41 40 38 41 42 42 44 44 46 48 50 51 51 51 50 48 47 46 45 44 43 42 41 39 38 37 37 36 35 34 34 33 32 31 29 26 22 22 22 16 15 18 18 16 15 18 23 23 23 25 27 27 26 25 27 29 25
51 51 50 49 49 49 49 49 50 50 51 51 51 51 51 51 50 50 49 49 49 49 48 48 47 46 46 45 44 44 43 45 42 39 41 41 42 44 44 45 47 49 51 51 51 51 50 49 48 48 47 45 44 43 42 40 40 40 39 38 37 36 35 34 33 32 30 27 26 26 19 15 18 18 17 17 19 22 22 23 25 26 26 25 25 27 27 23
55 54 54 53 52 52 51 51 51 52 52 52 52 52 53 53 52 52 52 51 51 50 50 50 50 49 49 48 47 47 47 49 45 40 43 43 42 44 44 44 45 47 49 51 51 52 52 51 50 50 49 48 47 45 44 43 43 43 42 41 40 39 38 37 35 35 34 30 30 31 24 18 18 17 18 19 20 20 22 25 25 25 25 24 25 26 25 21
58 58 57 57 56 56 55 54 53 53 53 53 53 54 54 54 54 54 54 53 53 52 52 52 52 52 51 51 51 50 50 52 47 43 46 46 43 44 45 45 44 45 47 50 51 52 52 52 51 51 50 49 48 47 46 46 46 46 44 44 43 42 41 40 40 39 37 33 32 33 29 25 23 20 20 21 20 20 22 24 24 23 23 23 24 24 22 18
62 62 61 60 60 59 59 58 57 56 56 55 55 55 55 55 55 55 55 55 55 55 54 54 54 54 54 54 53 54 54 54 51 48 48 48 46 46 46 46 45 44 45 48 50 51 52 52 51 51 51 50 50 49 48 49 49 48 47 46 45 45 45 44 43 42 40 37 35 35 33 30 29 27 24 24 23 23 23 23 23 21 21 22 23 22 20 17
66 66 65 65 64 63 62 61 61 60 59 58 57 57 57 57 57 56 56 56 56 56 56 56 56 56 56 56 55 57 57 56 54 52 51 51 49 48 48 48 47 45 45 46 49 50 51 51 51 51 52 51 51 51 50 51 51 50 49 48 48 48 47 45 44 43 41 39 36 36 35 34 33 31 28 27 27 26 24 23 23 21 21 22 22 20 18 16
68 68 69 68 68 67 66 65 64 63 62 61 61 60 59 59 58 58 58 58 58 58 58 58 58 57 58 58 58 59 58 58 58 56 55 54 52 51 50 49 49 47 46 45 47 49 50 50 50 51 52 52 52 52 52 52 52 51 50 50 50 49 48 47 45 44 43 40 39 38 36 36 35 34 32 31 30 27 24 24 24 23 22 21 20 19 18 16
67 68 69 70 71 71 70 69 68 67 66 65 64 63 62 61 61 60 60 60 60 59 59 59 59 59 59 60 60 60 60 60 60 59 58 57 56 54 53 52 51 50 49 47 46 47 48 49 50 50 50 51 52 52 53 53 53 52 51 51 51 50 49 48 46 45 45 42 42 42 39 38 38 37 36 34 31 28 25 24 23 23 22 20 18 18 17 15
66 67 68 70 71 72 73 73 72 71 70 69 68 67 66 65 64 63 62 62 62 61 61 61 61 61 61 61 61 61 62 62 62 62 61 60 59 58 56 55 53 52 51 49 48 47 47 48 49 49 48 49 51 52 52 53 53 53 52 52 51 51 50 48 47 47 46 44 43 43 42 41 40 39 38 35 32 28 26 25 23 22 22 20 17 16 16 15
67 67 68 69 70 72 73 74 74 74 74 73 72 71 70 69 68 67 65 65 64 64 63 63 63 62 62 63 63 63 63 63 64 64 63 62 62 61 59 57 56 55 54 52 51 49 48 48 48 48 47 47 48 49 51 52 53 52 53 53 53 52 50 48 47 47 47 46 45 45 44 42 41 41 38 35 32 29 27 25 23 22 21 19 15 13 15 15
69 69 69 69 70 71 73 74 75 75 76 76 76 75 74 73 71 70 69 68 67 66 66 65 65 64 64 64 64 64 64 65 65 65 65 64 64 63 62 61 60 59 57 56 54 52 50 49 49 48 47 45 45 47 49 49 51 52 53 54 53 52 50 48 48 47 47 45 45 45 44 43 42 41 37 34 32 29 27 25 23 21 19 18 15 11 13 14
71 72 71 71 71 72 73 74 75 76 77 77 78 78 77 76 75 74 73 72 71 69 68 67 67 67 66 66 66 65 65 66 67 67 67 66 66 65 65 64 63 62 60 58 56 55 53 51 50 49 47 45 44 44 44 45 50 53 53 54 53 52 50 48 48 48 46 45 46 45 43 42 41 40 36 33 32 29 27 25 22 20 19 18 13 9 11 12
70 72 73 73 73 74 74 74 75 76 77 78 78 79 80 79 78 78 77 76 75 73 71 70 70 69 68 68 68 67 67 67 68 68 68 68 68 68 68 67 66 64 62 60 59 58 56 54 52 50 48 46 46 45 43 47 53 52 52 53 52 51 49 48 49 48 46 46 46 44 42 41 40 39 35 33 32 29 27 26 24 21 20 18 13 9 10 10
68 71 73 75 75 75 76 76 76 77 78 78 79 80 80 80 80 81 81 80 78 77 75 74 73 72 70 69 70 70 69 69 69 69 70 70 69 69 69 69 68 67 65 63 62 61 59 57 54 51 50 49 49 49 47 50 53 50 49 51 51 49 48 48 48 47 46 47 45 44 43 41 39 38 34 32 32 30 28 28 25 22 21 19 15 11 10 9
65 67 70 73 75 76 77 77 78 78 78 79 79 80 81 81 81 82 84 83 82 81 79 78 77 75 73 72 73 73 71 71 70 70 71 70 71 71 71 71 70 69 67 66 65 64 62 59 56 54 54 55 53 52 51 50 50 48 46 48 48 47 46 47 47 46 46 46 45 44 43 40 39 39 35 33 33 30 29 28 25 23 23 22 18 14 11 10
59 62 65 69 72 76 77 78 78 79 79 79 80 80 81 82 81 83 84 84 84 84 83 81 81 79 77 75 76 75 73 72 72 72 72 72 72 72 72 72 71 70 70 69 68 67 64 60 58 58 59 59 56 53 53 50 49 48 45 46 47 45 44 44 44 44 45 44 44 44 42 40 39 38 35 33 33 31 29 28 25 24 24 23 20 16 13 11
51 54 59 63 67 72 76 77 78 79 80 80 81 81 81 82 83 83 84 85 85 85 85 85 84 83 82 80 79 77 76 75 74 74 75 74 74 73 73 73 73 72 72 72 71 68 65 62 61 63 64 62 58 56 54 52 51 49 46 46 46 43 42 42 42 42 42 42 42 42 40 39 38 37 35 33 31 30 29 28 26 25 25 24 22 18 15 13
46 49 52 56 61 66 71 75 77 78 79 81 82 82 82 82 83 84 85 85 85 85 86 86 86 86 86 84 82 81 80 78 76 75 77 77 76 75 74 75 74 74 74 73 73 70 67 66 66 68 67 64 61 59 57 55 53 50 47 46 46 43 42 43 44 44 42 42 42 41 40 38 37 35 34 31 29 30 29 28 28 27 27 26 23 20 17 15
43 46 49 52 56 60 65 69 73 76 78 80 82 82 82 83 83 84 85 85 86 86 86 86 87 88 88 88 86 85 84 82 78 77 79 79 77 77 77 77 76 75 76 75 74 73 70 70 70 70 69 67 65 63 60 57 55 53 50 48 48 46 45 45 45 44 44 44 43 42 41 38 35 34 34 32 30 30 29 29 30 30 29 28 25 23 20 18
41 43 47 51 53 56 60 63 68 73 76 78 80 81 82 83 83 83 84 85 85 86 86 85 86 88 89 89 89 89 88 86 83 81 83 81 79 79 79 79 78 77 77 77 76 74 73 73 73 73 71 70 68 66 63 60 58 56 53 51 51 50 48 47 45 43 43 42 41 41 40 37 35 35 35 33 30 30 31 32 32 32 31 29 27 26 24 21
38 40 43 47 50 53 57 60 63 67 71 75 76 78 80 81 82 83 83 84 84 86 86 86 87 88 88 89 90 90 90 89 87 86 86 84 82 81 80 81 81 80 79 79 77 76 75 76 76 75 74 73 71 69 66 64 61 58 56 55 54 52 51 49 46 43 42 41 40 39 37 37 37 36 35 33 32 32 33 33 33 34 33 32 30 29 27 23
34 36 37 41 44 47 51 56 58 61 65 69 71 74 76 78 80 81 82 82 83 85 86 86 88 88 87 88 90 90 91 92 90 89 89 88 86 84 83 83 82 82 82 81 79 78 77 77 78 77 77 76 73 71 70 68 65 62 60 58 56 54 54 53 49 45 43 40 38 37 37 37 37 37 37 36 35 34 35 36 35 36 35 34 33 30 28 25
32 32 33 34 37 40 43 47 51 54 58 61 64 67 71 74 76 77 79 79 81 84 85 85 87 87 87 89 90 90 90 92 91 91 92 92 90 89 88 85 84 84 84 83 81 80 79 79 80 80 79 78 75 73 73 72 68 65 65 62 59 58 58 57 52 47 44 40 38 38 38 37 36 37 38 38 37 37 38 38 38 38 37 36 35 32 29 26
31 31 31 31 31 33 35 37 41 45 49 52 56 59 63 67 71 73 75 76 78 81 83 84 85 85 87 90 91 90 90 91 91 91 94 95 93 93 92 90 88 87 86 84 82 82 81 81 81 80 79 77 76 76 76 74 71 70 69 66 63 62 61 59 54 49 44 39 39 40 38 37 37 38 40 40 40 41 41 40 40 40 40 38 37 33 31 28
31 30 30 30 30 30 30 31 33 36 40 44 47 51 55 59 63 67 70 72 75 77 79 81 83 85 87 88 89 91 91 91 91 91 93 95 94 95 96 95 93 91 90 87 84 83 83 82 82 80 78 77 78 79 77 76 74 74 73 70 67 65 63 61 57 52 45 39 40 40 38 39 39 40 42 43 43 46 46 43 41 41 41 41 39 37 34 31
33 31 30 29 29 29 29 28 29 31 33 36 40 43 47 51 56 60 63 67 70 72 74 77 81 84 86 86 87 89 91 92 92 92 93 94 95 96 99 99 98 96 93 89 86 85 85 85 84 82 80 80 81 80 79 77 76 76 76 74 72 69 67 65 60 55 47 42 43 42 40 40 38 39 43 45 47 49 50 46 42 42 44 44 42 39 37 34
36 34 32 31 29 29 29 29 28 29 30 32 35 38 42 46 50 53 57 60 61 64 69 73 76 79 83 86 86 86 88 90 92 93 94 94 95 97 100 101 100 98 95 93 90 88 87 86 85 84 83 83 83 82 81 79 78 79 79 78 76 73 70 66 62 58 50 47 48 47 44 41 40 42 45 48 49 51 52 49 44 44 47 47 43 40 38 36
37 36 34 33 32 31 30 30 29 29 30 31 33 36 39 42 45 47 50 50 51 57 64 68 71 74 78 82 83 84 87 89 90 92 94 95 96 98 101 101 99 98 98 97 94 91 90 88 86 86 85 85 85 85 83 81 82 83 81 79 78 75 71 67 64 60 55 52 53 52 47 44 44 46 49 50 50 51 53 51 48 46 49 49 45 41 40 36
37 36 35 35 34 33 32 32 32 32 32 33 34 36 38 40 42 44 44 43 47 55 59 61 65 69 72 75 77 81 86 87 87 89 92 95 99 101 101 99 97 97 98 98 97 96 94 91 89 88 87 87 88 88 86 85 86 86 83 80 80 79 75 70 66 64 60 57 57 56 50 46 46 49 51 51 51 51 52 53 52 49 49 50 47 44 41 37
36 35 35 35 35 35 35 35 35 34 35 35 36 37 38 39 39 40 40 42 48 54 55 56 60 63 65 68 71 76 81 85 85 88 91 94 98 101 100 96 95 97 98 99 100 100 98 96 94 91 89 88 90 90 88 87 86 86 84 83 83 83 80 75 71 69 66 62 60 59 53 50 50 51 53 52 50 50 52 55 56 52 49 49 49 47 43 40
36 33 33 34 34 35 35 36 37 37 37 37 38 39 39 38 38 40 41 44 48 51 51 53 55 57 60 63 66 70 75 79 80 84 90 93 96 97 96 95 95 97 98 99 101 101 100 100 99 95 92 91 91 91 90 88 86 86 86 85 86 86 83 80 76 74 71 66 63 60 56 55 54 53 54 53 50 50 52 56 59 56 50 49 51 51 47 43
37 33 31 31 32 33 34 36 37 38 39 39 40 40 39 39 39 41 43 44 46 49 49 50 51 54 58 61 62 63 67 71 74 78 85 91 93 91 91 93 95 97 99 99 101 101 101 102 102 100 98 96 94 93 91 88 87 89 88 87 88 88 87 83 80 78 75 70 66 63 60 58 56 55 55 54 52 52 53 57 59 58 54 52 53 53 48 44
38 35 32 29 29 30 32 33 35 38 39 39 40 41 40 40 40 42 42 43 45 47 47 47 50 54 57 57 55 56 61 64 67 71 77 84 88 87 87 90 93 97 100 101 102 102 102 103 104 103 102 99 97 94 92 90 89 91 91 89 89 90 90 86 83 81 78 74 69 66 63 61 59 58 58 56 54 53 55 57 57 57 56 54 55 53 48 45
39 37 34 29 27 28 29 31 32 34 36 37 39 40 40 41 41 41 41 42 44 46 46 47 49 52 54 52 51 53 57 59 61 67 74 78 81 81 83 86 90 94 98 101 103 103 102 103 104 105 104 102 99 96 95 93 92 94 94 92 91 92 91 88 85 83 82 79 73 69 67 64 62 61 61 59 57 57 57 57 57 57 57 55 54 53 50 48
39 37 35 31 28 26 26 27 29 31 31 32 35 36 37 39 39 39 40 41 43 44 44 45 45 48 50 49 48 50 53 56 60 66 70 71 71 73 77 81 85 91 96 100 102 103 102 102 103 105 105 104 102 101 100 99 97 97 98 95 93 94 92 89 86 84 84 82 76 73 71 67 66 66 65 64 62 61 60 58 58 59 59 56 54 53 52 51
39 36 34 32 29 27 25 26 26 28 28 28 30 31 33 35 35 36 38 37 39 39 40 40 41 44 46 44 45 48 50 52 58 62 64 64 64 67 71 75 80 86 93 97 101 102 103 102 103 106 106 104 104 104 104 103 100 99 99 97 96 96 95 92 88 85 85 84 79 76 74 72 71 70 69 69 66 63 62 61 61 62 61 58 55 53 55 55
40 35 33 31 30 27 25 25 25 26 26 26 26 27 28 30 30 31 32 32 33 34 34 36 38 40 40 39 43 46 46 48 53 58 60 59 59 62 67 71 76 82 89 95 98 101 103 104 104 107 107 105 104 105 107 106 103 100 100 99 98 97 97 96 92 89 88 87 84 81 77 76 76 74 73 73 69 66 66 64 63 63 62 61 57 56 59 58
42 36 32 29 28 27 25 25 24 24 25 25 24 25 25 26 27 28 28 28 30 31 32 34 36 36 36 38 40 42 43 46 49 53 55 55 56 59 64 68 73 79 85 91 95 98 102 104 105 107 108 106 105 106 108 109 107 105 104 103 101 99 100 99 96 93 92 90 90 86 82 81 80 78 77 75 73 71 69 67 66 66 64 63 59 58 61 60
43 38 32 27 26 26 25 24 24 23 24 24 23 24 24 24 25 26 26 27 28 30 31 33 34 34 35 37 37 38 40 43 45 48 50 51 53 57 61 65 69 75 81 86 90 95 99 102 103 107 109 107 106 107 110 112 112 111 109 106 104 102 102 101 97 95 93 92 92 89 85 85 85 83 81 79 77 76 73 71 71 69 67 66 64 62 63 61
43 38 33 28 24 24 24 24 23 23 23 23 23 23 24 24 25 25 26 26 28 29 30 32 33 33 34 35 36 36 39 41 42 45 46 47 49 53 58 61 66 72 79 83 87 92 97 100 102 106 109 109 108 109 111 113 115 114 112 110 108 106 104 100 98 96 94 92 93 90 88 89 90 88 85 82 81 80 77 75 73 69 68 68 67 65 62 60
44 37 32 28 24 22 22 22 22 22 22 22 23 23 23 24 24 25 26 26 28 29 30 31 32 32 33 34 35 36 38 40 41 42 44 45 47 50 54 58 63 69 76 81 85 90 95 98 101 105 109 110 110 111 112 114 115 115 114 114 113 110 106 102 100 99 95 92 92 91 91 92 93 91 87 85 84 82 79 76 73 69 68 67 66 64 61 59
46 38 32 27 24 21 20 20 20 21 21 21 22 23 23 24 24 25 26 27 28 29 30 31 31 32 33 34 35 36 38 39 40 41 43 44 45 48 52 55 60 65 72 78 83 87 92 96 99 104 108 111 112 112 113 114 115 115 115 116 116 113 108 104 102 100 97 94 93 93 95 95 93 91 89 86 85 82 78 77 75 71 70 67 65 64 62 60
47 40 33 27 23 20 19 18 19 19 20 21 22 22 23 24 24 25 26 27 28 29 30 31 32 33 34 35 35 36 37 38 39 40 42 43 44 47 49 53 57 61 67 75 81 85 90 93 98 102 106 110 113 113 114 115 116 116 116 116 117 115 111 107 104 101 98 96 94 95 97 97 94 93 92 88 84 81 78 78 76 73 70 67 65 65 64 63
48 41 34 28 24 20 18 17 17 18 19 20 21 22 22 24 24 25 27 27 28 29 30 31 32 32 33 34 35 36 37 38 38 39 40 42 43 45 48 51 55 58 63 71 78 83 86 91 96 100 103 108 112 114 113 114 115 116 116 116 116 115 113 110 106 102 99 97 96 97 99 99 97 97 96 91 85 81 79 79 77 75 72 68 67 67 66 66
49 42 35 30 25 21 18 16 16 16 17 18 19 21 22 23 24 25 27 28 29 30 31 31 33 34 34 35 36 37 38 38 38 39 39 40 42 44 46 49 52 55 59 66 73 79 83 87 92 97 100 104 110 114 114 113 114 115 114 114 114 114 114 112 109 105 101 100 100 101 102 101 100 100 98 93 88 84 81 80 79 77 75 71 71 70 68 68
50 43 36 31 26 22 18 16 15 15 16 17 18 19 20 22 23 24 26 28 29 30 32 33 34 35 37 37 38 38 39 39 39 39 39 39 40 42 44 46 50 53 56 61 68 74 79 83 88 92 96 100 107 113 115 114 113 113 112 112 113 115 116 115 113 109 105 104 105 105 106 105 104 103 100 95 92 89 85 82 81 79 77 76 76 74 71 70
51 44 37 32 28 23 19 16 15 14 15 15 16 18 19 21 22 24 26 28 29 31 33 34 36 37 38 39 40 40 40 40 39 39 39 39 39 40 42 44 46 50 53 58 64 69 74 78 82 87 92 97 104 111 115 114 112 111 111 112 114 116 117 117 116 112 109 108 108 109 111 110 109 107 103 98 96 95 90 86 85 83 81 80 80 77 75 73
Wind_Direction
259 257 255 254 252 251 251 251 250 249 248 247 247 246 246 246 245 243 240 236 231 229 229 228 228 228 227 225 222 220 220 220 220 221 222 222 222 222 222 222 222 222 222 222 222 222 221 221 222 222 223 223 223 223 224 225 223 222 225 229 235 236 238 243 242 246 253 257 264 270 264 259 275 270 260 282 302 313 321 324 325 328 331 334 334 333 336 341
261 259 256 255 253 252 251 251 251 250 249 248 247 246 246 245 245 243 241 237 233 229 227 227 227 227 227 228 225 223 222 221 220 220 222 224 224 223 224 224 224 224 223 223 223 222 222 222 223 222 223 223 224 224 225 226 226 224 225 229 235 238 240 242 241 244 248 250 257 267 264 255 258 245 260 280 295 309 318 321 322 325 329 331 331 332 335 340
262 260 258 256 254 253 251 250 250 250 249 248 248 247 246 245 244 243 241 239 235 231 227 226 226 226 227 227 228 226 224 223 221 220 222 224 225 225 225 226 226 226 225 224 224 223 223 223 224 224 225 225 225 226 226 227 227 226 226 229 234 237 239 240 242 245 249 251 246 251 262 268 266 262 275 283 292 308 316 317 319 322 327 329 329 331 335 340
265 262 260 257 255 254 252 251 250 249 249 248 248 247 246 245 244 242 241 239 236 233 230 227 225 226 226 226 228 228 228 226 220 220 223 223 225 226 226 227 228 228 227 227 226 225 224 224 225 225 226 226 227 228 228 228 228 228 228 229 233 236 238 239 239 241 246 248 243 245 254 263 267 268 272 278 292 307 313 314 318 322 326 328 328 330 334 338
267 265 263 260 257 255 254 252 251 250 249 248 247 247 246 245 244 243 241 240 237 235 232 229 226 225 226 225 227 228 230 228 221 222 225 222 224 226 227 228 228 229 229 229 228 227 227 226 226 226 226 227 227 229 230 231 232 231 231 231 235 237 239 240 237 239 243 244 242 245 247 257 270 272 267 273 292 302 306 312 317 320 323 325 325 329 333 336
267 266 265 263 260 258 255 253 252 250 249 248 248 247 246 245 245 243 242 240 238 236 233 231 228 225 225 225 226 227 230 230 223 225 226 222 224 225 226 228 229 230 230 230 230 229 229 228 228 228 228 227 227 229 230 231 233 234 234 233 235 238 241 242 241 241 242 242 243 243 248 262 269 272 272 277 288 295 302 308 313 316 318 321 322 327 332 333
266 265 264 263 262 260 258 255 253 252 250 249 248 247 246 245 245 244 242 241 239 237 235 233 230 227 225 225 226 226 229 230 225 227 228 223 225 224 224 227 229 230 230 230 231 231 231 231 230 230 229 229 228 229 229 230 232 233 234 235 237 238 240 242 243 243 241 241 244 246 250 262 264 267 276 282 285 293 300 304 310 313 314 316 319 326 330 330
264 263 263 262 261 260 259 257 255 253 251 250 249 247 247 245 244 244 243 242 240 238 236 234 231 229 226 225 225 226 229 230 225 227 230 226 225 226 224 225 227 230 230 230 230 231 231 231 231 231 231 231 230 230 230 230 231 231 232 233 235 237 238 240 242 243 241 239 243 245 243 245 256 267 274 279 285 293 300 303 307 309 310 313 317 324 328 327
262 261 261 260 260 259 258 257 256 255 253 251 250 248 247 246 245 244 243 242 241 239 237 236 233 230 228 226 225 226 228 229 224 225 231 228 226 227 226 225 226 228 230 230 230 230 231 231 232 232 233 233 232 232 232 232 232 232 232 233 235 236 237 237 238 240 240 238 240 244 241 237 245 258 267 272 283 293 299 305 308 307 308 312 316 323 325 322
262 261 260 258 258 257 257 256 256 255 254 252 251 249 248 246 245 244 243 242 241 240 238 237 235 232 230 227 226 227 227 227 225 223 228 229 228 228 228 226 225 226 229 231 231 230 231 231 232 232 233 233 233 233 233 233 234 233 232 233 235 236 236 237 238 239 241 239 240 243 242 239 241 247 257 265 277 288 293 300 306 306 307 308 312 321 321 316
263 261 260 258 257 256 255 255 254 254 253 252 251 250 248 247 246 245 243 242 241 240 239 237 236 234 232 230 228 228 226 226 226 224 225 228 228 228 229 228 226 226 227 230 231 231 230 231 231 232 232 233 233 233 234 234 234 234 234 234 235 236 237 238 239 241 242 242 242 243 244 243 242 244 251 260 271 282 286 290 295 299 301 302 306 317 317 310
263 261 260 258 257 255 254 253 253 252 252 251 251 250 249 247 246 245 244 243 242 240 239 238 237 235 234 232 230 229 227 226 227 224 224 226 228 228 229 230 228 226 227 228 230 231 230 230 231 232 232 233 233 233 234 234 235 235 234 235 236 237 238 239 240 241 243 243 244 245 246 248 247 248 253 260 267 275 279 282 285 290 295 296 301 314 313 304
264 262 260 258 257 255 254 253 252 251 250 250 250 249 249 248 246 245 244 243 242 241 240 239 238 236 235 234 232 230 229 228 227 226 224 225 227 227 227 229 229 228 227 227 229 231 231 230 230 231 231 232 233 233 234 234 235 235 234 235 236 237 238 239 240 242 243 244 245 247 249 252 253 254 257 261 265 270 274 276 279 284 289 291 298 311 308 299
264 262 260 258 256 255 253 252 251 250 250 249 248 248 248 247 246 245 244 243 242 241 240 239 238 237 236 235 233 232 231 229 228 227 226 224 226 227 227 228 229 229 228 227 228 229 231 231 230 229 230 231 232 233 234 235 235 235 235 236 236 236 237 238 239 241 243 244 246 248 250 252 254 257 258 261 264 267 269 271 273 279 285 285 292 307 304 293
263 261 260 258 256 255 253 252 251 249 249 248 247 247 246 246 246 245 244 243 242 241 240 239 238 237 236 236 234 233 232 231 230 228 227 226 225 226 227 227 228 229 229 227 227 228 229 230 230 229 228 230 232 233 234 235 235 235 236 236 236 236 236 236 238 240 241 242 245 247 248 250 253 256 258 259 262 264 263 263 267 274 280 278 283 301 298 289
262 260 258 257 256 255 253 252 250 249 248 247 246 246 245 245 244 244 244 243 242 241 240 239 239 238 237 236 235 234 233 233 231 229 228 227 226 226 227 227 227 228 229 228 227 228 228 229 230 229 228 228 230 232 233 234 235 234 235 235 235 236 236 236 238 239 240 241 243 244 246 248 251 254 256 259 259 258 257 257 262 268 270 269 274 291 288 282
261 260 257 255 255 254 253 251 250 248 247 246 245 245 244 244 243 243 243 243 242 241 241 240 239 238 237 237 236 235 234 234 233 231 230 229 227 226 226 226 227 228 228 228 228 228 228 229 230 230 229 228 228 231 233 234 233 233 234 235 235 235 235 236 237 238 239 240 242 243 245 247 250 252 252 255 255 252 251 253 257 259 258 258 262 277 276 274
258 258 257 255 253 252 251 250 249 248 247 246 245 244 243 243 242 242 242 241 241 241 240 240 239 238 237 237 236 235 234 234 234 233 231 230 228 227 227 227 226 227 228 228 228 228 228 228 229 229 229 228 228 228 229 233 234 233 234 235 235 235 236 236 237 238 238 239 241 242 243 244 247 249 248 250 251 249 248 249 251 251 249 248 248 257 263 266
257 256 255 255 253 251 250 249 248 248 247 245 244 244 243 242 241 241 241 240 240 240 240 240 239 238 237 237 237 235 234 234 234 234 233 231 230 229 228 227 226 226 227 227 228 228 227 227 228 229 229 228 227 227 227 232 234 233 234 235 235 235 236 236 236 237 238 239 239 240 241 241 244 246 244 244 248 247 247 247 248 246 244 242 240 242 248 257
258 256 255 254 253 252 250 248 248 247 246 245 244 244 243 242 241 241 241 240 239 239 238 239 239 238 237 237 237 236 235 234 233 234 234 233 232 230 229 228 227 227 226 227 228 228 227 227 227 228 229 228 227 227 227 230 233 233 233 235 235 234 235 236 236 236 236 237 237 238 239 239 241 243 241 241 244 245 245 246 245 242 242 241 236 231 233 244
260 258 256 254 253 252 251 249 247 246 246 245 244 243 243 242 241 241 241 240 239 239 238 238 238 238 237 236 237 236 235 234 233 233 234 234 233 232 231 229 228 227 227 226 227 227 227 227 227 228 229 229 227 226 227 229 231 232 232 234 234 233 234 235 235 236 236 236 236 236 237 237 239 241 240 240 241 242 241 243 241 235 237 238 232 224 219 229
264 261 258 255 253 252 251 250 249 247 246 245 244 243 242 242 241 241 241 240 239 238 238 237 237 237 236 236 236 236 235 234 233 233 234 233 233 233 232 231 229 228 228 227 227 227 226 226 226 228 228 228 227 226 227 227 229 231 231 234 234 232 232 232 232 233 234 234 235 235 235 235 236 238 238 238 240 240 238 237 234 227 228 232 228 220 214 220
269 265 261 258 255 253 252 251 250 249 247 245 244 243 242 242 241 241 240 240 240 239 238 238 237 237 237 236 235 235 235 234 233 233 234 233 233 233 233 232 231 229 228 228 227 226 225 224 225 227 228 228 228 227 227 226 228 229 229 232 234 231 230 230 229 229 229 230 232 233 232 232 233 234 235 234 235 236 234 231 227 221 223 226 223 217 212 216
274 269 265 262 258 255 253 251 251 250 249 247 245 244 243 242 241 241 241 241 240 240 239 238 237 237 237 236 235 235 235 234 232 233 234 233 232 232 232 232 232 230 229 228 227 226 224 224 225 226 227 227 228 228 227 226 226 227 227 229 232 231 229 229 230 229 229 229 230 231 230 229 228 228 229 227 226 228 228 224 221 219 221 221 220 217 214 214
280 274 269 265 261 257 255 252 251 250 250 249 247 246 245 244 242 242 241 241 241 241 240 239 238 238 237 237 236 235 234 234 232 232 234 233 231 232 232 232 232 231 230 229 228 226 225 225 225 226 227 227 227 227 227 226 225 226 225 225 229 230 229 229 229 229 229 230 230 230 230 227 223 223 224 222 219 221 221 218 216 217 219 218 218 217 214 212
286 280 274 268 264 260 257 255 252 251 250 250 249 248 248 246 245 243 242 242 241 242 241 240 239 238 238 237 236 235 235 234 232 232 234 233 231 231 231 231 231 231 231 229 228 227 225 225 225 225 226 226 226 226 226 226 225 225 225 224 226 229 230 229 228 227 227 227 228 229 227 224 221 219 220 217 214 217 218 215 213 213 215 215 215 216 214 211
292 288 281 274 268 263 260 258 255 253 252 251 250 249 249 248 247 245 244 243 242 243 242 241 240 240 239 238 238 236 235 235 233 232 233 233 232 231 231 231 231 231 230 230 229 227 226 226 226 225 225 225 225 225 225 226 225 224 225 224 224 227 229 229 227 225 225 224 224 225 224 223 220 216 216 213 209 211 214 214 213 211 211 214 215 215 214 211
299 294 289 281 274 268 263 260 258 256 254 254 252 250 249 248 247 246 245 244 243 243 243 241 241 241 240 240 239 237 236 235 234 233 233 233 232 232 231 230 230 231 230 230 229 228 227 226 226 226 226 225 224 224 224 225 224 224 225 224 223 224 227 229 227 224 224 222 220 220 220 221 220 216 215 213 208 207 211 213 211 208 209 212 214 213 214 214
304 298 294 288 282 275 268 263 260 258 256 254 253 251 249 248 247 246 245 244 243 243 243 242 241 241 240 240 239 239 237 236 235 234 234 233 232 232 231 230 229 230 230 229 228 228 228 227 227 227 227 226 225 224 224 224 223 224 225 224 223 224 226 229 228 225 222 220 221 221 218 217 215 214 214 212 207 205 208 213 209 205 207 210 212 211 212 214
307 301 297 292 288 282 275 269 263 260 257 254 252 250 249 248 247 246 245 244 243 243 243 243 242 241 240 240 240 239 238 237 236 234 234 234 232 232 232 231 229 229 229 229 227 227 228 228 227 227 227 227 227 225 225 224 223 224 225 224 224 224 225 228 228 225 219 217 222 222 218 216 212 212 213 210 208 205 207 212 211 206 206 209 210 209 210 212
308 303 297 292 287 284 280 274 268 263 259 255 253 250 248 247 246 245 244 243 243 243 243 243 243 242 241 240 240 239 238 237 237 235 235 234 233 232 232 231 230 229 228 228 227 227 227 227 227 226 225 225 226 226 225 224 223 224 224 224 225 224 224 225 226 225 218 212 220 221 216 214 210 210 213 210 208 207 206 209 212 210 207 209 210 209 209 210
307 302 297 292 287 282 279 275 271 266 262 259 255 252 249 248 246 245 245 244 244 244 244 243 242 243 242 241 239 240 239 238 237 236 235 235 234 232 231 231 230 229 229 228 227 227 227 227 226 226 225 225 225 225 224 223 223 224 223 224 225 225 225 224 224 225 218 210 216 219 214 211 208 210 214 212 209 209 207 207 211 212 210 210 210 209 209 209
306 300 295 291 286 282 278 274 270 266 263 260 257 255 252 249 248 247 246 245 245 245 244 243 242 241 242 241 240 240 240 238 237 236 236 235 234 233 232 230 229 229 229 228 227 227 227 227 226 226 226 225 226 225 223 222 222 223 223 224 225 226 225 224 224 224 219 212 214 218 213 208 208 211 214 213 210 210 208 207 209 212 212 211 210 209 209 210
306 299 293 288 284 280 277 273 270 265 262 259 256 255 253 251 250 249 248 247 246 245 244 243 242 241 241 241 240 240 240 239 237 237 236 235 235 233 232 231 230 229 229 229 227 227 226 226 226 225 225 225 225 226 224 222 222 222 221 222 223 225 224 222 222 222 219 214 214 216 213 208 209 214 217 214 210 210 209 208 207 210 213 212 210 209 207 209
309 301 293 287 283 278 275 272 268 265 261 258 256 254 253 252 252 252 250 247 246 245 244 244 243 242 241 240 240 240 240 238 237 237 237 235 234 234 232 231 230 230 229 229 228 226 226 226 225 225 224 225 226 226 225 224 224 224 222 220 222 223 222 220 219 221 219 215 215 216 212 207 209 215 219 216 211 210 210 209 206 208 212 212 211 209 206 207
314 306 297 290 284 278 274 270 267 265 262 259 257 255 253 252 252 252 249 246 247 247 246 246 245 244 243 241 239 239 240 239 237 238 238 236 235 234 233 231 230 230 229 229 228 227 226 225 225 224 223 224 225 226 225 224 224 225 223 221 221 222 221 219 218 219 219 216 216 216 212 208 209 214 219 218 212 209 211 211 207 205 209 212 211 210 206 207
319 312 304 295 288 282 275 270 266 264 262 260 259 257 255 253 251 251 249 248 249 249 248 247 247 246 244 242 240 240 240 239 237 237 238 238 236 234 233 232 230 230 230 229 228 227 226 226 225 224 222 222 223 224 225 224 224 225 224 222 222 222 222 220 217 218 219 217 216 216 213 209 209 213 218 218 213 209 211 214 209 204 207 210 211 211 208 209
322 316 310 301 293 286 280 274 268 265 262 260 259 258 257 255 252 251 251 251 251 250 249 249 248 247 245 243 242 242 241 239 238 238 239 238 236 234 233 232 230 229 229 229 228 227 226 226 225 224 223 222 222 223 224 223 224 225 225 223 223 224 223 221 217 217 219 218 215 216 214 210 208 211 217 218 215 211 212 216 212 204 205 209 210 211 210 211
324 318 314 307 298 290 283 277 272 267 264 261 260 259 258 257 255 253 253 252 253 252 251 250 249 249 248 245 242 242 242 240 238 237 237 237 236 233 232 231 230 229 229 228 228 227 225 225 225 224 223 222 222 222 223 222 221 223 224 223 223 225 225 223 219 217 218 217 215 215 215 212 208 210 214 217 215 214 213 215 214 206 203 207 209 211 212 213
327 319 315 310 301 293 285 278 274 270 267 263 261 260 258 257 256 255 254 252 252 252 252 251 250 251 249 246 243 241 240 240 238 236 236 236 236 234 231 230 230 229 229 228 227 227 225 225 226 225 224 222 221 221 222 222 221 222 223 222 222 224 225 224 221 218 218 218 216 214 214 213 210 209 212 215 215 215 214 214 215 209 202 204 208 210 213 214
331 322 315 310 303 296 287 280 275 272 269 265 262 260 258 257 256 255 253 252 252 252 252 251 250 249 248 247 245 241 237 238 239 238 237 234 234 235 232 229 229 229 229 228 227 226 225 224 225 226 224 222 221 221 222 222 222 222 223 222 221 222 223 223 221 218 218 218 217 215 213 213 213 210 210 214 214 215 216 214 215 211 203 202 206 209 213 214
334 326 317 311 304 298 290 282 277 272 269 266 263 260 257 256 255 253 252 251 251 251 250 250 249 248 248 247 245 242 237 236 239 239 237 233 230 232 232 229 227 227 228 228 226 225 224 223 223 225 224 221 221 221 221 222 222 222 223 223 221 221 222 222 219 217 216 216 216 216 214 214 215 212 210 213 213 214 216 216 216 213 205 201 204 209 213 212
337 329 321 313 304 298 291 283 278 272 268 266 263 260 257 255 254 253 252 251 251 251 250 250 250 249 248 247 246 245 241 239 239 239 237 233 228 228 229 229 227 226 227 227 226 225 224 223 222 224 224 221 220 220 220 221 220 220 222 223 222 221 221 222 220 217 215 215 215 215 213 214 216 214 212 212 212 213 214 215 217 215 208 202 203 209 212 211
339 332 326 319 306 298 292 284 278 271 267 264 262 260 258 255 254 254 253 253 253 253 252 252 251 251 250 248 247 247 245 243 242 242 238 232 228 227 226 227 227 227 226 226 226 225 224 222 222 223 224 222 220 220 220 220 220 219 220 222 222 221 221 222 221 219 216 215 216 215 213 214 215 216 214 212 212 212 212 214 216 215 209 203 202 207 211 210
342 335 329 323 310 299 292 285 279 272 267 264 261 259 259 257 256 256 256 255 254 254 253 253 252 251 251 250 249 247 247 246 246 245 242 234 228 228 227 224 225 227 226 225 225 224 223 221 220 221 223 223 220 219 220 220 219 219 218 220 222 222 221 221 221 221 218 217 216 216 214 214 215 216 215 212 212 212 211 213 215 214 211 206 203 205 209 210
344 338 331 325 315 304 294 285 279 273 267 265 262 260 258 257 257 257 256 255 254 253 253 253 253 252 251 250 250 248 248 248 248 247 246 238 230 229 229 224 223 226 227 226 224 224 223 221 218 219 221 223 221 220 220 220 220 219 218 218 221 221 221 220 220 220 220 218 218 216 216 216 216 216 216 213 213 212 211 213 215 214 213 210 205 205 208 211
346 342 335 328 320 310 298 288 280 273 267 263 260 259 258 257 257 257 256 255 254 253 252 251 252 252 251 251 250 249 249 249 249 248 247 244 237 233 231 226 223 225 227 227 225 224 223 222 219 217 218 221 222 221 220 220 220 219 218 218 220 221 220 219 219 220 219 218 218 217 217 218 217 218 217 215 214 213 211 213 215 215 214 212 208 205 206 210
348 344 339 333 325 316 304 293 283 275 268 263 260 257 256 255 255 255 255 255 254 253 253 251 251 252 252 253 252 252 252 250 250 249 247 246 242 239 236 231 225 224 227 228 227 225 223 222 220 218 217 219 221 221 220 220 219 219 219 218 219 220 220 219 218 219 219 218 217 217 218 219 218 218 219 218 215 213 212 213 215 216 216 213 210 208 206 208
350 346 342 337 331 323 311 298 287 279 272 266 262 258 256 254 253 253 253 253 253 253 253 253 253 254 254 255 255 255 256 255 254 252 249 247 245 243 241 238 231 227 228 229 229 227 225 223 222 219 217 218 221 222 221 220 220 220 219 218 219 220 220 220 219 217 217 218 217 217 218 219 218 219 219 218 216 214 212 212 213 215 217 215 213 211 208 207
352 349 345 341 337 330 320 307 295 284 276 270 265 262 259 257 255 254 253 252 252 253 253 253 255 256 256 257 257 257 257 257 257 256 254 251 248 245 244 243 239 234 231 232 231 229 228 225 223 221 218 217 220 222 222 220 220 220 220 218 218 219 220 220 219 217 216 216 217 217 217 218 219 220 219 217 217 215 213 212 212 213 215 217 216 213 210 209
353 351 348 345 342 336 327 316 304 291 281 274 268 264 262 260 259 258 257 256 255 255 255 255 255 256 257 257 258 258 259 260 260 260 259 256 253 251 248 245 243 240 236 235 234 232 230 227 225 223 220 218 219 222 222 220 219 219 219 219 218 218 218 219 219 217 215 215 216 217 217 216 216 219 219 217 217 216 214 212 212 213 214 217 218 216 212 211
354 354 351 349 346 341 333 323 311 299 288 279 271 265 263 260 259 258 258 258 258 258 258 258 257 258 258 259 259 260 261 262 263 263 263 261 260 257 254 251 248 244 240 238 237 234 232 229 227 224 221 219 219 221 223 222 219 217 218 219 219 219 218 217 218 217 216 215 216 217 217 216 215 216 217 216 217 218 214 211 211 212 213 216 219 218 214 212
Height
10922 10923 10924 10925 10926 10927 10928 10929 10930 10932 10933 10934 10936 10938 10940 10942 10943 10945 10947 10949 10951 10953 10954 10956 10957 10958 10959 10960 10961 10962 10964 10966 10968 10970 10972 10974 10975 10977 10980 10981 10983 10985 10986 10989 10991 10993 10995 10997 10999 11000 11002 11004 11005 11007 11008 11009 11011 11013 11014 11015 11015 11016 11018 11019 11021 11023 11024 11023 11023 11022 11022 11024 11026 11029 11030 11026 11022 11021 11020 11020 11019 11017 11016 11016 11015 11014 11012 11010
10918 10918 10919 10920 10921 10922 10923 10924 10925 10927 10928 10929 10931 10932 10934 10936 10938 10940 10942 10944 10946 10948 10950 10952 10953 10955 10956 10956 10958 10959 10960 10962 10964 10967 10969 10970 10971 10974 10976 10978 10979 10981 10983 10985 10988 10990 10992 10994 10995 10997 10999 11001 11002 11004 11006 11007 11009 11011 11012 11013 11014 11015 11017 11018 11019 11021 11022 11023 11024 11023 11023 11023 11024 11026 11026 11024 11022 11021 11020 11020 11018 11017 11017 11016 11015 11014 11013 11011
10914 10914 10914 10915 10916 10917 10918 10918 10920 10921 10922 10924 10925 10927 10929 10931 10933 10935 10937 10939 10941 10943 10946 10948 10949 10951 10952 10953 10954 10955 10956 10957 10960 10964 10965 10965 10968 10971 10973 10974 10975 10977 10980 10982 10984 10986 10989 10991 10992 10995 10997 10999 11000 11002 11003 11005 11007 11009 11010 11012 11013 11014 11015 11016 11018 11019 11020 11021 11023 11023 11021 11021 11022 11023 11021 11021 11021 11020 11020 11019 11017 11017 11017 11016 11015 11015 11013 11011
10910 10910 10910 10910 10911 10912 10912 10913 10914 10915 10916 10918 10920 10921 10923 10925 10927 10929 10931 10933 10936 10938 10940 10943 10945 10947 10948 10950 10951 10952 10952 10953 10957 10961 10960 10962 10964 10966 10969 10970 10972 10974 10976 10978 10981 10983 10986 10988 10990 10993 10995 10997 10999 11000 11001 11003 11005 11007 11008 11010 11011 11012 11013 11015 11016 11018 11018 11019 11021 11021 11020 11019 11020 11021 11019 11019 11019 11019 11019 11018 11016 11016 11016 11016 11015 11014 11013 11012
10905 10905 10905 10905 10906 10906 10907 10907 10908 10909 10911 10912 10914 10915 10917 10919 10921 10923 10926 10928 10930 10933 10935 10937 10940 10942 10944 10946 10947 10948 10948 10948 10953 10956 10955 10958 10961 10962 10964 10966 10967 10970 10972 10974 10977 10980 10983 10985 10987 10990 10992 10994 10996 10997 11000 11002 11003 11005 11006 11008 11009 11010 11011 11012 11015 11016 11016 11018 11019 11019 11018 11017 11018 11018 11018 11019 11018 11017 11018 11017 11016 11016 11016 11016 11015 11014 11013 11012
10899 10899 10899 10900 10900 10901 10901 10902 10902 10903 10905 10906 10908 10909 10911 10913 10915 10917 10919 10922 10924 10927 10929 10931 10934 10937 10939 10941 10943 10944 10944 10944 10949 10950 10950 10955 10956 10958 10960 10961 10963 10965 10968 10971 10974 10977 10979 10981 10984 10986 10988 10991 10993 10995 10997 11000 11001 11003 11004 11006 11007 11008 11009 11010 11012 11013 11014 11016 11017 11016 11016 11016 11015 11014 11015 11018 11018 11016 11016 11017 11016 11016 11016 11015 11015 11015 11014 11013
10893 10893 10893 10894 10894 10894 10895 10896 10896 10898 10899 10900 10901 10903 10905 10907 10909 10911 10913 10915 10918 10920 10923 10925 10928 10931 10933 10936 10938 10940 10940 10939 10944 10946 10947 10951 10951 10953 10956 10957 10959 10960 10963 10967 10969 10972 10975 10977 10980 10982 10985 10987 10989 10992 10995 10997 10998 10999 11001 11003 11004 11005 11006 11007 11009 11010 11012 11014 11014 11013 11014 11016 11015 11013 11013 11016 11017 11016 11016 11016 11016 11015 11015 11015 11015 11015 11014 11013
10885 10885 10886 10886 10887 10888 10888 10889 10890 10891 10892 10894 10895 10897 10898 10900 10902 10904 10906 10909 10911 10914 10917 10919 10922 10924 10927 10930 10932 10934 10934 10933 10940 10943 10942 10944 10947 10948 10951 10953 10954 10956 10959 10962 10964 10967 10970 10973 10976 10978 10981 10984 10986 10989 10991 10993 10994 10995 10998 10999 11000 11002 11003 11005 11006 11007 11009 11012 11012 11010 11012 11015 11013 11011 11012 11013 11014 11016 11015 11016 11016 11015 11015 11015 11014 11014 11014 11013
10877 10877 10877 10878 10879 10880 10881 10882 10883 10884 10886 10887 10889 10890 10892 10893 10895 10898 10900 10902 10904 10907 10910 10912 10915 10918 10921 10924 10926 10928 10928 10928 10935 10938 10936 10939 10943 10944 10946 10948 10950 10952 10954 10956 10959 10962 10965 10968 10971 10974 10977 10980 10983 10985 10988 10989 10990 10992 10995 10996 10997 10998 10999 11001 11002 11003 11005 11008 11009 11008 11011 11013 11012 11010 11011 11012 11013 11015 11015 11015 11015 11015 11015 11014 11014 11014 11014 11013
10868 10868 10868 10869 10870 10871 10872 10873 10875 10877 10878 10880 10881 10883 10885 10887 10889 10891 10893 10895 10897 10900 10903 10906 10908 10911 10914 10917 10920 10921 10921 10924 10929 10932 10932 10934 10937 10939 10941 10943 10946 10949 10950 10952 10954 10957 10961 10964 10967 10970 10973 10976 10978 10981 10983 10984 10986 10988 10991 10993 10994 10994 10995 10997 10999 11000 11002 11005 11006 11006 11008 11011 11011 11011 11012 11012 11013 11014 11015 11014 11014 11015 11014 11014 11014 11014 11014 11014
10857 10858 10859 10860 10860 10861 10863 10864 10866 10868 10870 10872 10873 10875 10877 10879 10882 10884 10886 10888 10891 10893 10895 10898 10901 10905 10907 10910 10913 10913 10915 10920 10922 10926 10928 10929 10932 10934 10936 10938 10941 10944 10946 10948 10949 10953 10956 10959 10962 10965 10967 10970 10973 10976 10978 10979 10982 10984 10987 10989 10990 10990 10992 10994 10996 10998 11000 11002 11004 11004 11006 11008 11010 11011 11012 11013 11013 11014 11015 11014 11013 11014 11014 11013 11013 11014 11014 11014
10846 10847 10848 10849 10850 10851 10853 10855 10856 10859 10861 10863 10865 10867 10869 10871 10874 10876 10878 10881 10883 10886 10888 10891 10894 10897 10900 10903 10906 10906 10910 10914 10915 10919 10922 10923 10926 10929 10931 10933 10936 10939 10942 10944 10945 10948 10951 10954 10957 10960 10963 10966 10968 10971 10973 10974 10977 10980 10983 10985 10986 10988 10990 10992 10994 10996 10997 11000 11001 11002 11003 11005 11007 11009 11011 11012 11013 11014 11014 11014 11013 11013 11013 11013 11013 11013 11014 11014
10834 10835 10836 10837 10839 10840 10842 10844 10846 10848 10851 10853 10855 10858 10860 10863 10865 10868 10870 10872 10875 10878 10881 10884 10886 10890 10892 10895 10898 10900 10904 10906 10909 10913 10916 10918 10920 10923 10926 10927 10930 10934 10936 10939 10941 10943 10946 10949 10952 10955 10958 10960 10962 10965 10967 10969 10972 10975 10978 10980 10982 10985 10986 10989 10992 10994 10995 10998 10999 11000 11002 11003 11004 11006 11008 11010 11012 11013 11013 11013 11013 11013 11013 11013 11013 11013 11014 11014
10821 10823 10824 10825 10826 10828 10830 10833 10835 10837 10840 10842 10845 10848 10851 10853 10856 10859 10861 10864 10866 10870 10872 10876 10879 10882 10885 10887 10890 10894 10896 10899 10903 10906 10909 10913 10915 10917 10920 10922 10925 10928 10931 10935 10937 10939 10941 10944 10948 10950 10953 10955 10957 10960 10961 10964 10968 10970 10973 10975 10978 10980 10982 10986 10989 10990 10992 10995 10996 10997 11000 11001 11002 11003 11005 11008 11010 11011 11012 11012 11012 11013 11013 11013 11013 11013 11014 11014
10809 10810 10811 10812 10813 10815 10818 10820 10823 10826 10828 10831 10834 10837 10840 10843 10846 10849 10852 10855 10857 10861 10864 10867 10870 10874 10877 10879 10883 10886 10889 10892 10895 10898 10902 10906 10909 10911 10914 10917 10919 10922 10925 10929 10932 10934 10937 10939 10942 10945 10948 10950 10953 10955 10956 10959 10963 10965 10968 10970 10972 10975 10979 10983 10985 10987 10989 10991 10993 10994 10996 10998 10999 11000 11002 11005 11008 11009 11010 11010 11011 11012 11012 11012 11013 11013 11014 11014
10795 10796 10798 10799 10800 10802 10805 10807 10810 10813 10816 10819 10822 10826 10829 10832 10835 10839 10842 10845 10848 10852 10855 10859 10862 10865 10869 10872 10875 10879 10882 10884 10887 10891 10895 10898 10902 10905 10908 10910 10913 10915 10919 10922 10926 10929 10932 10934 10937 10941 10944 10947 10948 10949 10952 10955 10956 10958 10961 10963 10967 10971 10976 10980 10981 10983 10985 10988 10989 10991 10993 10996 10997 10998 11000 11003 11005 11006 11007 11009 11010 11011 11011 11012 11012 11012 11013 11014
10782 10782 10784 10786 10788 10789 10791 10794 10797 10800 10803 10806 10809 10813 10816 10820 10824 10828 10831 10834 10838 10842 10846 10850 10852 10856 10861 10863 10867 10871 10874 10876 10879 10883 10887 10890 10895 10898 10900 10904 10906 10909 10913 10917 10921 10924 10926 10930 10933 10936 10940 10943 10944 10945 10948 10948 10947 10951 10955 10959 10963 10967 10972 10976 10977 10979 10982 10984 10985 10987 10991 10993 10994 10996 10999 11000 11002 11004 11006 11007 11008 11009 11010 11010 11011 11012 11013 11014
10768 10768 10769 10772 10774 10776 10778 10780 10783 10786 10789 10793 10796 10800 10803 10808 10813 10816 10818 10822 10827 10831 10836 10840 10842 10847 10852 10855 10858 10862 10865 10868 10871 10875 10878 10882 10887 10890 10893 10897 10900 10904 10907 10911 10914 10917 10921 10925 10928 10932 10936 10938 10939 10940 10941 10939 10941 10949 10952 10955 10960 10964 10968 10971 10972 10975 10978 10980 10982 10985 10987 10990 10991 10993 10997 10998 10999 11002 11004 11005 11006 11008 11008 11009 11010 11011 11012 11013
10755 10755 10755 10757 10760 10762 10765 10767 10770 10773 10776 10780 10784 10787 10791 10795 10801 10803 10805 10811 10816 10820 10826 10829 10832 10837 10842 10846 10848 10851 10856 10860 10864 10866 10869 10874 10878 10882 10886 10889 10893 10897 10901 10905 10907 10911 10915 10920 10924 10928 10930 10931 10932 10934 10935 10934 10939 10946 10948 10950 10955 10960 10963 10965 10968 10971 10973 10975 10978 10981 10983 10986 10988 10989 10994 10997 10996 10999 11001 11002 11004 11006 11007 11008 11009 11010 11011 11012
10742 10743 10743 10744 10746 10748 10751 10754 10757 10760 10763 10767 10771 10775 10778 10782 10789 10790 10792 10799 10804 10808 10814 10818 10821 10826 10833 10837 10837 10841 10848 10852 10856 10859 10861 10866 10870 10874 10878 10882 10886 10891 10895 10898 10900 10904 10909 10915 10920 10922 10922 10922 10925 10929 10930 10932 10937 10941 10944 10947 10951 10955 10958 10960 10963 10966 10968 10970 10973 10976 10979 10983 10985 10986 10991 10994 10995 10997 10999 10999 11002 11004 11006 11007 11008 11008 11009 11011
10731 10731 10732 10732 10733 10735 10738 10741 10744 10747 10751 10754 10758 10762 10765 10770 10775 10777 10779 10786 10792 10796 10802 10807 10810 10815 10821 10825 10826 10831 10839 10842 10847 10851 10852 10857 10861 10865 10870 10873 10879 10883 10887 10890 10893 10898 10904 10911 10915 10914 10913 10915 10921 10925 10927 10930 10933 10937 10941 10942 10946 10951 10953 10955 10959 10961 10963 10966 10968 10971 10975 10979 10981 10983 10988 10991 10992 10994 10996 10997 11000 11002 11004 11006 11006 11007 11008 11009
10721 10721 10720 10721 10722 10723 10725 10729 10732 10736 10739 10742 10745 10749 10753 10757 10761 10765 10767 10772 10779 10784 10789 10795 10799 10803 10808 10813 10816 10821 10828 10832 10838 10842 10843 10847 10851 10856 10861 10865 10870 10875 10878 10882 10887 10893 10899 10905 10906 10904 10904 10910 10916 10919 10922 10926 10929 10933 10937 10938 10942 10947 10948 10950 10953 10955 10958 10961 10964 10967 10971 10975 10978 10980 10984 10988 10989 10991 10994 10995 10997 11000 11002 11003 11004 11006 11006 11007
10712 10712 10711 10711 10712 10712 10714 10717 10721 10724 10728 10730 10732 10736 10741 10745 10748 10752 10756 10760 10766 10771 10777 10783 10788 10792 10796 10801 10806 10811 10815 10819 10828 10833 10832 10836 10842 10848 10852 10855 10861 10866 10869 10874 10879 10885 10892 10896 10896 10894 10898 10905 10910 10914 10917 10922 10926 10929 10934 10935 10938 10941 10943 10944 10946 10950 10953 10955 10959 10963 10967 10971 10974 10977 10981 10984 10986 10988 10990 10992 10995 10998 11000 11000 11002 11004 11005 11005
10703 10702 10702 10701 10702 10702 10703 10706 10710 10712 10716 10718 10721 10724 10729 10733 10736 10740 10745 10749 10754 10758 10765 10771 10775 10780 10784 10788 10795 10800 10803 10808 10819 10823 10819 10825 10834 10839 10842 10846 10851 10856 10860 10866 10871 10878 10884 10886 10886 10887 10893 10900 10904 10908 10912 10918 10921 10924 10929 10931 10932 10935 10937 10939 10942 10946 10949 10952 10956 10959 10962 10967 10971 10974 10976 10979 10983 10985 10987 10989 10992 10996 10997 10998 11000 11002 11003 11003
10695 10694 10693 10692 10692 10693 10693 10695 10699 10700 10703 10706 10710 10713 10717 10721 10725 10729 10733 10738 10743 10746 10752 10759 10763 10767 10771 10776 10782 10787 10791 10798 10808 10811 10808 10816 10825 10829 10833 10837 10841 10846 10851 10856 10862 10869 10875 10876 10878 10881 10887 10893 10897 10902 10907 10912 10916 10919 10924 10926 10927 10929 10932 10934 10938 10943 10946 10950 10953 10955 10959 10963 10967 10969 10971 10975 10979 10981 10983 10986 10990 10993 10994 10996 10998 11000 11000 11001
10687 10685 10684 10682 10682 10684 10684 10685 10688 10690 10691 10694 10699 10702 10706 10710 10713 10719 10723 10727 10732 10734 10739 10747 10750 10753 10758 10764 10769 10774 10781 10786 10794 10799 10799 10805 10814 10819 10822 10826 10831 10836 10841 10846 10853 10861 10866 10867 10870 10874 10879 10885 10890 10896 10900 10905 10910 10914 10918 10920 10922 10924 10927 10931 10935 10939 10943 10947 10950 10953 10956 10959 10962 10965 10968 10972 10976 10978 10980 10984 10987 10990 10991 10993 10996 10997 10998 11000
10681 10679 10677 10674 10673 10674 10675 10675 10678 10681 10681 10683 10688 10691 10694 10698 10701 10707 10712 10716 10722 10722 10726 10734 10735 10739 10748 10752 10756 10763 10769 10772 10781 10790 10790 10793 10803 10807 10811 10816 10821 10825 10829 10836 10844 10851 10856 10859 10862 10867 10871 10876 10883 10889 10893 10897 10904 10909 10910 10914 10918 10920 10922 10925 10930 10935 10939 10944 10948 10950 10953 10955 10959 10962 10965 10968 10972 10975 10978 10980 10984 10987 10988 10990 10993 10995 10997 10998
10675 10673 10671 10668 10666 10666 10667 10667 10668 10670 10672 10673 10677 10679 10682 10686 10689 10694 10699 10705 10711 10709 10713 10720 10723 10730 10737 10739 10742 10749 10755 10760 10770 10778 10777 10781 10790 10794 10799 10806 10810 10814 10819 10828 10836 10841 10847 10851 10853 10857 10862 10869 10876 10882 10884 10889 10898 10902 10903 10907 10912 10914 10914 10918 10925 10932 10936 10941 10944 10946 10949 10953 10957 10960 10962 10965 10970 10974 10975 10977 10981 10983 10985 10987 10989 10992 10995 10996
10669 10667 10665 10663 10661 10659 10659 10660 10660 10661 10663 10663 10666 10669 10671 10674 10678 10682 10687 10693 10697 10697 10701 10707 10712 10718 10721 10723 10729 10735 10742 10748 10757 10764 10763 10768 10779 10782 10786 10794 10799 10803 10808 10818 10827 10832 10838 10842 10845 10851 10859 10866 10871 10873 10877 10884 10892 10894 10895 10901 10905 10908 10911 10915 10922 10928 10933 10939 10941 10943 10946 10949 10953 10956 10959 10962 10967 10971 10972 10973 10976 10979 10981 10984 10986 10989 10992 10994
10664 10661 10659 10657 10656 10654 10653 10653 10653 10653 10654 10655 10657 10659 10661 10664 10666 10670 10675 10680 10683 10686 10691 10695 10699 10702 10706 10711 10717 10722 10729 10735 10742 10749 10750 10755 10767 10770 10772 10780 10786 10791 10796 10807 10817 10823 10828 10833 10838 10846 10854 10860 10862 10865 10871 10877 10883 10885 10888 10894 10898 10903 10907 10910 10916 10923 10931 10938 10939 10940 10944 10946 10949 10951 10954 10958 10962 10966 10968 10969 10972 10975 10978 10980 10982 10985 10988 10991
10658 10655 10653 10651 10650 10649 10647 10647 10646 10646 10647 10648 10649 10650 10652 10654 10656 10660 10664 10667 10672 10677 10681 10684 10685 10688 10694 10700 10704 10708 10715 10722 10728 10734 10737 10743 10752 10755 10758 10764 10771 10778 10788 10798 10807 10812 10817 10821 10828 10837 10843 10848 10851 10856 10864 10869 10875 10878 10881 10886 10891 10896 10900 10905 10912 10919 10928 10935 10934 10936 10940 10942 10946 10948 10950 10954 10957 10960 10964 10967 10969 10971 10974 10976 10978 10982 10985 10988
10651 10648 10646 10645 10644 10643 10641 10641 10640 10640 10640 10641 10642 10642 10644 10645 10647 10651 10654 10659 10666 10669 10669 10671 10675 10678 10680 10685 10692 10697 10702 10707 10713 10719 10725 10730 10736 10740 10741 10747 10759 10770 10779 10787 10795 10801 10807 10812 10820 10827 10833 10837 10840 10845 10853 10861 10867 10869 10872 10878 10883 10888 10894 10902 10908 10914 10923 10929 10928 10929 10934 10938 10942 10944 10945 10947 10951 10955 10960 10964 10965 10966 10969 10971 10975 10979 10982 10985
10643 10641 10639 10637 10636 10636 10635 10634 10634 10634 10634 10634 10634 10634 10635 10637 10640 10643 10646 10654 10659 10657 10655 10659 10664 10666 10667 10672 10682 10686 10686 10691 10699 10707 10712 10716 10720 10723 10724 10735 10752 10762 10767 10776 10785 10792 10798 10804 10812 10818 10823 10829 10831 10834 10842 10850 10854 10857 10864 10871 10877 10883 10890 10899 10904 10909 10917 10922 10921 10922 10927 10934 10937 10938 10939 10941 10946 10950 10955 10959 10961 10962 10964 10967 10972 10975 10979 10982
10636 10633 10631 10630 10629 10628 10628 10627 10627 10627 10627 10627 10627 10627 10628 10629 10632 10636 10641 10647 10647 10642 10644 10649 10651 10654 10658 10663 10669 10671 10671 10678 10688 10693 10696 10700 10702 10703 10710 10728 10743 10749 10755 10764 10772 10779 10786 10793 10800 10805 10812 10818 10820 10824 10832 10839 10840 10845 10855 10864 10868 10874 10882 10892 10898 10902 10909 10914 10915 10915 10922 10930 10933 10934 10934 10936 10941 10946 10950 10955 10958 10959 10960 10963 10968 10972 10976 10979
10628 10626 10624 10622 10621 10621 10620 10620 10620 10620 10620 10620 10620 10620 10621 10623 10627 10630 10634 10636 10633 10631 10636 10639 10641 10644 10648 10652 10656 10658 10658 10666 10676 10678 10679 10683 10683 10687 10703 10722 10732 10737 10744 10750 10756 10765 10773 10780 10785 10793 10803 10809 10811 10815 10822 10828 10834 10840 10848 10853 10857 10863 10872 10882 10889 10893 10899 10905 10907 10910 10917 10924 10926 10927 10928 10932 10938 10942 10945 10949 10953 10957 10958 10961 10965 10969 10973 10975
10621 10620 10617 10615 10614 10613 10613 10612 10612 10612 10613 10613 10612 10613 10615 10618 10622 10623 10624 10625 10623 10624 10628 10631 10633 10636 10638 10639 10644 10647 10647 10656 10665 10664 10664 10666 10668 10680 10698 10711 10720 10724 10730 10736 10741 10750 10760 10766 10771 10782 10793 10798 10801 10805 10812 10821 10829 10833 10839 10845 10849 10853 10862 10872 10879 10883 10889 10897 10902 10907 10913 10917 10920 10923 10924 10927 10934 10938 10940 10943 10947 10953 10956 10958 10962 10964 10968 10971
10615 10613 10611 10609 10607 10605 10605 10604 10605 10604 10605 10606 10605 10606 10608 10612 10614 10614 10614 10617 10616 10617 10620 10623 10625 10626 10626 10627 10633 10639 10640 10645 10652 10651 10651 10652 10658 10676 10688 10696 10707 10710 10713 10721 10727 10736 10749 10753 10758 10769 10776 10781 10786 10793 10802 10814 10821 10823 10829 10836 10840 10844 10851 10861 10869 10874 10881 10890 10896 10900 10906 10911 10916 10919 10920 10922 10928 10932 10935 10936 10941 10949 10953 10954 10956 10959 10964 10967
10608 10606 10605 10604 10601 10599 10598 10597 10597 10597 10597 10598 10598 10598 10601 10603 10605 10605 10607 10609 10609 10610 10613 10616 10616 10614 10614 10620 10627 10631 10630 10634 10641 10641 10640 10640 10648 10666 10676 10681 10691 10694 10698 10705 10710 10721 10733 10737 10743 10755 10764 10772 10780 10787 10795 10806 10812 10814 10819 10826 10832 10835 10840 10849 10860 10867 10874 10881 10888 10894 10899 10905 10910 10914 10915 10918 10923 10927 10929 10931 10937 10945 10948 10949 10952 10956 10961 10964
10603 10599 10597 10597 10596 10594 10592 10590 10590 10589 10589 10591 10590 10591 10594 10595 10596 10598 10601 10602 10601 10602 10605 10607 10607 10605 10607 10614 10620 10620 10620 10626 10631 10627 10625 10629 10638 10653 10662 10668 10675 10680 10683 10690 10696 10707 10718 10724 10732 10742 10751 10762 10773 10782 10786 10791 10797 10799 10804 10815 10823 10825 10831 10841 10852 10859 10864 10871 10881 10888 10893 10899 10905 10907 10909 10911 10915 10919 10922 10925 10931 10938 10943 10946 10949 10953 10956 10958
10599 10594 10591 10590 10589 10588 10587 10585 10584 10583 10583 10584 10584 10585 10587 10587 10589 10591 10592 10594 10594 10595 10596 10598 10600 10598 10599 10605 10609 10611 10613 10615 10615 10612 10614 10623 10633 10642 10650 10656 10662 10665 10668 10675 10684 10695 10707 10717 10723 10729 10739 10751 10761 10768 10769 10772 10781 10784 10789 10802 10810 10815 10823 10833 10844 10853 10858 10864 10874 10880 10885 10892 10896 10898 10901 10903 10906 10911 10915 10920 10924 10930 10937 10942 10946 10949 10951 10952
10595 10589 10585 10583 10582 10581 10581 10580 10579 10578 10578 10578 10578 10579 10580 10580 10582 10584 10584 10586 10587 10588 10589 10591 10592 10591 10592 10598 10600 10601 10605 10605 10603 10603 10609 10619 10628 10632 10637 10644 10649 10651 10654 10661 10671 10681 10693 10704 10709 10712 10724 10738 10748 10755 10757 10763 10774 10778 10782 10791 10799 10804 10811 10820 10834 10846 10851 10858 10867 10872 10878 10884 10884 10888 10892 10893 10898 10905 10909 10914 10917 10922 10930 10937 10940 10943 10944 10946
10590 10585 10580 10578 10576 10575 10575 10574 10574 10573 10572 10573 10573 10574 10574 10574 10576 10577 10578 10580 10581 10581 10583 10583 10584 10585 10587 10591 10590 10591 10597 10597 10595 10595 10601 10612 10620 10622 10625 10631 10635 10638 10641 10646 10656 10666 10675 10686 10693 10695 10706 10723 10735 10742 10747 10754 10764 10771 10774 10780 10787 10795 10799 10806 10820 10832 10838 10847 10855 10862 10871 10875 10875 10880 10883 10885 10893 10898 10901 10907 10910 10915 10923 10930 10933 10935 10937 10942
10584 10580 10577 10574 10570 10569 10569 10568 10569 10568 10567 10568 10568 10569 10570 10570 10571 10572 10573 10575 10575 10576 10577 10577 10578 10580 10582 10583 10583 10585 10588 10588 10587 10588 10594 10604 10611 10612 10614 10618 10623 10627 10629 10633 10643 10653 10660 10672 10682 10684 10692 10710 10722 10727 10732 10738 10746 10754 10758 10763 10774 10783 10787 10793 10805 10816 10825 10834 10841 10849 10860 10865 10867 10871 10873 10878 10886 10889 10893 10900 10903 10906 10915 10923 10928 10929 10932 10938
10579 10574 10572 10570 10567 10564 10564 10563 10564 10564 10563 10563 10564 10564 10565 10566 10566 10567 10568 10569 10570 10570 10571 10571 10573 10575 10576 10576 10578 10580 10580 10580 10581 10582 10587 10596 10601 10602 10604 10609 10613 10616 10618 10622 10630 10639 10647 10661 10673 10675 10679 10694 10706 10712 10715 10719 10726 10736 10745 10753 10764 10771 10775 10785 10799 10810 10818 10825 10830 10840 10851 10854 10856 10859 10862 10869 10876 10879 10885 10890 10892 10897 10907 10915 10921 10924 10929 10936
10576 10571 10567 10565 10563 10560 10559 10558 10558 10559 10558 10559 10560 10560 10561 10561 10562 10562 10563 10564 10565 10566 10566 10566 10568 10569 10570 10570 10572 10573 10573 10574 10575 10576 10580 10587 10592 10593 10594 10600 10604 10603 10606 10611 10617 10624 10633 10645 10658 10663 10666 10676 10689 10695 10698 10704 10712 10724 10737 10744 10749 10756 10766 10781 10794 10803 10813 10821 10826 10836 10844 10843 10843 10846 10852 10860 10866 10870 10876 10881 10887 10894 10901 10909 10917 10923 10929 10935
10573 10568 10564 10561 10559 10557 10556 10555 10554 10554 10554 10554 10555 10556 10556 10557 10557 10558 10559 10560 10560 10561 10561 10562 10563 10564 10565 10565 10566 10567 10568 10568 10569 10571 10573 10577 10583 10585 10585 10591 10595 10594 10595 10600 10605 10612 10619 10629 10641 10649 10654 10663 10673 10680 10686 10694 10703 10713 10724 10729 10734 10744 10760 10774 10783 10791 10806 10818 10824 10832 10836 10833 10834 10838 10845 10853 10858 10864 10872 10878 10886 10893 10897 10906 10917 10925 10931 10934
10569 10566 10561 10558 10555 10554 10552 10551 10551 10550 10550 10550 10551 10551 10552 10553 10553 10554 10554 10555 10556 10556 10557 10558 10558 10559 10560 10560 10561 10562 10562 10562 10563 10565 10566 10569 10574 10576 10577 10582 10586 10586 10586 10588 10594 10600 10607 10615 10626 10635 10642 10648 10655 10664 10673 10681 10689 10699 10711 10718 10725 10735 10750 10764 10772 10781 10796 10808 10816 10824 10824 10823 10830 10836 10841 10847 10852 10861 10870 10876 10882 10888 10892 10901 10912 10921 10928 10932
10567 10562 10558 10555 10552 10550 10549 10548 10547 10546 10546 10547 10547 10547 10548 10549 10549 10550 10550 10551 10552 10552 10553 10554 10554 10555 10554 10555 10555 10556 10556 10557 10558 10559 10560 10563 10566 10567 10569 10572 10576 10578 10578 10578 10583 10589 10595 10604 10612 10621 10630 10635 10639 10650 10660 10668 10676 10687 10699 10708 10716 10727 10741 10752 10762 10774 10787 10797 10806 10812 10811 10815 10826 10831 10835 10842 10849 10859 10867 10872 10879 10885 10890 10898 10906 10913 10921 10925
10565 10560 10555 10552 10549 10547 10546 10545 10544 10543 10543 10543 10543 10544 10545 10545 10546 10546 10547 10547 10548 10548 10549 10549 10549 10550 10550 10549 10550 10550 10550 10551 10552 10553 10554 10556 10558 10560 10561 10563 10566 10569 10570 10569 10572 10578 10585 10592 10598 10608 10619 10625 10628 10635 10646 10658 10668 10676 10686 10698 10708 10720 10732 10742 10753 10766 10778 10788 10796 10800 10801 10808 10816 10820 10826 10836 10845 10854 10861 10867 10874 10881 10888 10895 10900 10906 10913 10917
10563 10558 10553 10549 10547 10544 10543 10542 10541 10540 10540 10540 10540 10540 10541 10542 10542 10543 10543 10543 10544 10544 10544 10545 10544 10544 10545 10544 10544 10544 10544 10545 10545 10547 10548 10549 10551 10552 10553 10555 10557 10560 10562 10562 10563 10567 10574 10580 10587 10598 10610 10617 10619 10622 10632 10646 10658 10667 10679 10692 10702 10712 10722 10733 10744 10756 10768 10776 10779 10782 10786 10795 10804 10809 10818 10829 10838 10846 10854 10861 10868 10875 10883 10888 10891 10897 10905 10910
10561 10556 10551 10548 10545 10542 10540 10539 10538 10538 10537 10537 10537 10537 10538 10538 10538 10539 10539 10539 10540 10539 10539 10540 10539 10539 10539 10539 10539 10539 10539 10539 10539 10540 10541 10542 10543 10544 10545 10546 10547 10549 10552 10554 10554 10558 10563 10569 10578 10587 10598 10607 10610 10609 10615 10628 10642 10657 10672 10685 10692 10699 10707 10718 10730 10744 10756 10760 10761 10765 10771 10778 10789 10798 10809 10822 10829 10834 10844 10854 10861 10869 10876 10878 10880 10887 10895 10902
10560 10555 10550 10546 10543 10540 10538 10537 10536 10535 10535 10534 10534 10534 10535 10535 10535 10535 10536 10535 10535 10535 10535 10535 10534 10534 10533 10533 10533 10533 10533 10534 10534 10534 10535 10535 10536 10536 10536 10537 10538 10539 10542 10544 10545 10548 10553 10560 10568 10576 10587 10596 10597 10596 10602 10612 10628 10647 10663 10672 10677 10682 10691 10704 10717 10732 10744 10748 10748 10750 10751 10757 10771 10782 10795 10810 10819 10824 10833 10843 10850 10859 10866 10868 10871 10878 10886 10893